Hourly Data Report for October 20, 2016

All times are specified in Local Standard Time (LST). Add 1 hour to adjust for Daylight Saving Time where and when it is observed.

BATHURST A
NEW BRUNSWICK

47°37'47.000" N
65°44'20.000" W
58.80 m
8100505
71574
ZBF

Download Data

Hourly Data (October 2016)
Hourly Data Report for October 20, 2016
Temp Definition
°C
Dew Point Temp Definition
°C
Rel Hum Definition
%
Wind Dir Definition
10's deg

Wind Spd Definition
km/h
Visibility Definition
km
Stn Press Definition
kPa
Hmdx Definition


Wind Chill Definition


Weather Definition


TIME
00:00 Legend Double Dagger 9.0 2.4 63 29 11 24.1 100.94     LegendNANA
01:00 Legend Double Dagger 8.1 1.7 64 26 6 24.1 101.04     LegendNANA
02:00 Legend Double Dagger 6.2 1.7 73 26 9 24.1 101.15     Clear
03:00 Legend Double Dagger 4.9 1.9 81 21 4 24.1 101.25     LegendNANA
04:00 Legend Double Dagger 3.5 1.9 89 20 7 24.1 101.36     LegendNANA
05:00 Legend Double Dagger 0.2 -0.8 93 25 5 24.1 101.41     Clear
06:00 Legend Double Dagger 1.6 -0.7 85 22 5 24.1 101.48     LegendNANA
07:00 Legend Double Dagger 1.0 0.0 93 22 4 24.1 101.60     LegendNANA
08:00 Legend Double Dagger 5.4 2.4 81 27 10 24.1 101.69     Mainly Clear
09:00 Legend Double Dagger 9.3 2.9 64 33 9 24.1 101.74     LegendNANA
10:00 Legend Double Dagger 10.9 3.3 59 30 8 24.1 101.75     LegendNANA
11:00 Legend Double Dagger 11.2 2.3 54 35 9 24.1 101.79     Mostly Cloudy
12:00 Legend Double Dagger 12.5 2.1 49 30 7 24.1 101.81     LegendNANA
13:00 Legend Double Dagger 11.4 3.2 57 8 14 24.1 101.81     LegendNANA
14:00 Legend Double Dagger 12.6 3.1 52 4 7 24.1 101.80     Mostly Cloudy
15:00 Legend Double Dagger 11.2 3.0 57 10 16 24.1 101.83     LegendNANA
16:00 Legend Double Dagger 11.0 2.9 57 6 7 24.1 101.89     LegendNANA
17:00 Legend Double Dagger 10.3 2.9 60 8 5 24.1 101.94     Cloudy
18:00 Legend Double Dagger 9.5 3.3 65 7 3 24.1 101.95     LegendNANA
19:00 Legend Double Dagger 9.5 3.9 68 12 7 24.1 101.97     LegendNANA
20:00 Legend Double Dagger 9.1 4.7 74 15 3 24.1 101.98     Cloudy
21:00 Legend Double Dagger 9.1 4.9 75 16 4 24.1 102.00     LegendNANA
22:00 Legend Double Dagger 8.6 5.5 81 15 3 12.9 102.02     Rain
23:00 Legend Double Dagger 7.7 6.2 90 12 7 12.9 101.89     Rain

Notes on Data Quality.

Legend

  • E = Estimated
  • M = Missing
  • NA = Not Available
  • ‡ = Partner data that is not subject to review by the National Climate Archives
Date modified: